St. Petersburg Airport, FL

8:16 PM EDT on March 24, 2017 (GMT -0400)
Saint Petersburg-Clearwater International

Weather History for KPIE - January, 2010

Change the Weather History Date:

Sunday, January 10, 2010

  Actual Average Record
Temperature  
Mean Temperature 38 °F -  
Max Temperature 42 °F 68 °F 81 °F (1972)
Min Temperature 34 °F 55 °F 31 °F (1970)
Degree Days  
Heating Degree Days 27    
Moisture  
Dew Point 25 °F    
Average Humidity 62    
Maximum Humidity 67    
Minimum Humidity 57    
Precipitation  
Precipitation 0.00 in - - ()
Sea Level Pressure  
Sea Level Pressure 30.39 in    
Wind  
Wind Speed 12 mph (North)    
Max Wind Speed 21 mph    
Max Gust Speed 26 mph    
Visibility 10 miles    
Events      
Averages and records for this station are not official NWS values.
T = Trace of Precipitation, MM = Missing Value Source: NWS Daily Summary

Daily Weather History Graph

Daily Weather History Graph

Search for Another Location

Airport or City:

Trip Planner

Search our weather history database for the weather conditions in past years. The results will help you decide how hot, cold, wet, or windy it might be!

Date:

Astronomy

Jan. 10, 2010 Rise Set
Actual Time 7:23 AM EST 5:53 PM EST
Civil Twilight 6:57 AM EST 6:18 PM EST
Nautical Twilight 6:29 AM EST 6:47 PM EST
Astronomical Twilight 6:00 AM EST 7:16 PM EST
Moon 3:31 AM EST (1/10) 2:03 PM EST (1/10)
Length of Visible Light 11h 21m
Length of Day
10h 30m
Waning Crescent, 19% of the Moon is Illuminated
Jan 10
Waning Crescent
Jan 15
New
Jan 23
First Quarter
Jan 30
Full
Feb 5
Last Quarter

Hourly Weather History & Observations

Time (EST) Temp. Windchill Dew Point Humidity Pressure Visibility Wind Dir Wind Speed Gust Speed Precip Events Conditions
12:53 AM 34.0 °F 27.2 °F 21.9 °F 61% 30.32 in 10.0 mi North 8.1 mph - N/A   Clear
1:53 AM 34.0 °F 26.0 °F 21.9 °F 61% 30.31 in 10.0 mi North 10.4 mph - N/A   Clear
2:53 AM 34.0 °F 25.5 °F 23.0 °F 64% 30.32 in 10.0 mi North 11.5 mph - N/A   Partly Cloudy
3:53 AM 34.0 °F 26.0 °F 23.0 °F 64% 30.33 in 10.0 mi North 10.4 mph - N/A   Overcast
4:53 AM 35.1 °F 27.9 °F 25.0 °F 67% 30.34 in 10.0 mi North 9.2 mph - N/A   Overcast
5:53 AM 35.1 °F 27.4 °F 25.0 °F 67% 30.34 in 10.0 mi North 10.4 mph - N/A   Overcast
6:53 AM 35.1 °F 26.9 °F 24.1 °F 64% 30.36 in 10.0 mi North 11.5 mph - N/A   Overcast
7:53 AM 35.1 °F 26.9 °F 24.1 °F 64% 30.39 in 10.0 mi North 11.5 mph - N/A   Partly Cloudy
8:53 AM 37.0 °F 29.3 °F 26.1 °F 65% 30.41 in 10.0 mi North 11.5 mph - N/A   Clear
9:53 AM 37.9 °F 29.6 °F 25.0 °F 60% 30.43 in 10.0 mi North 13.8 mph 20.7 mph N/A   Clear
10:53 AM 39.0 °F 31.4 °F 26.1 °F 60% 30.44 in 10.0 mi North 12.7 mph 19.6 mph N/A   Scattered Clouds
11:53 AM 39.9 °F 32.1 °F 26.1 °F 58% 30.43 in 10.0 mi North 13.8 mph 21.9 mph N/A   Scattered Clouds
12:53 PM 42.1 °F 33.6 °F 28.0 °F 58% 30.39 in 10.0 mi NW 18.4 mph 23.0 mph N/A   Scattered Clouds
1:53 PM 42.1 °F 33.1 °F 28.9 °F 60% 30.37 in 10.0 mi NNW 20.7 mph 26.5 mph N/A   Clear
2:53 PM 42.1 °F 34.2 °F 28.9 °F 60% 30.37 in 10.0 mi NNW 16.1 mph - N/A   Scattered Clouds
3:53 PM 41.0 °F 32.2 °F 27.0 °F 57% 30.37 in 10.0 mi NW 18.4 mph - N/A   Clear
4:53 PM 39.0 °F 29.6 °F 28.0 °F 65% 30.37 in 10.0 mi NNW 18.4 mph - N/A   Clear
5:53 PM 36.0 °F 26.3 °F 24.1 °F 62% 30.39 in 10.0 mi NNW 16.1 mph - N/A   Clear
6:53 PM 36.0 °F 28.5 °F 24.1 °F 62% 30.42 in 10.0 mi NNW 10.4 mph - N/A   Clear
7:53 PM 37.0 °F 28.9 °F 25.0 °F 62% 30.44 in 10.0 mi NNW 12.7 mph - N/A   Clear
8:53 PM 37.0 °F 28.9 °F 25.0 °F 62% 30.45 in 10.0 mi NNW 12.7 mph - N/A   Clear
9:53 PM 37.0 °F 30.4 °F 26.1 °F 65% 30.47 in 10.0 mi North 9.2 mph - N/A   Clear
10:53 PM 37.9 °F 30.0 °F 24.1 °F 57% 30.47 in 10.0 mi North 12.7 mph 20.7 mph N/A   Clear
11:53 PM 37.0 °F 28.9 °F 24.1 °F 59% 30.47 in 10.0 mi North 12.7 mph 20.7 mph N/A   Clear